time_stamp(utc),avg(mph),gust(mph),direction(deg),12m_air_temp(f),sonic_u(cm/s),sonic_v(cm/s),sonic_w(cm/s),pressure,2m_air_temp(f),pyranometer(W/m^2)
"2019-04-24 00:01:24+00",14.8,17.8,,61.1,-319,-568,2,1010.78,60.8,0
"2019-04-24 00:06:24+00",13.5,16.5,,61,-324,-509,-32,1010.71,60.7,0
"2019-04-24 00:11:24+00",12.5,15.5,,61,-313,-468,-38,1010.79,60.7,0
"2019-04-24 00:16:24+00",12.9,14.9,,61,-307,-480,-46,1010.79,60.7,0
"2019-04-24 00:21:24+00",14.5,16.5,,61,-351,-536,-56,1010.67,60.7,0
"2019-04-24 00:26:24+00",14.3,17.3,,61,-333,-532,-54,1010.52,60.6,0
"2019-04-24 00:31:24+00",11.7,14.7,,60.9,-252,-437,-42,1010.49,60.5,0
"2019-04-24 00:36:24+00",11.7,14.7,,60.9,-280,-438,-39,1010.59,60.5,0
"2019-04-24 00:41:24+00",12.8,14.8,,60.8,-332,-479,-32,1010.6,60.5,0
"2019-04-24 00:46:24+00",14.4,17.4,,60.9,-404,-539,-46,1010.63,60.5,0
"2019-04-24 00:51:24+00",14.5,16.5,,60.9,-413,-530,-31,1010.65,60.5,0
"2019-04-24 00:56:24+00",16.4,19.4,,60.8,-419,-603,-30,1010.5,60.4,0
"2019-04-24 01:01:24+00",15.4,18.4,,60.8,-438,-558,-26,1010.6,60.4,0
"2019-04-24 01:06:24+00",15.6,17.6,,60.7,-374,-582,-31,1010.41,60.3,0
"2019-04-24 01:11:24+00",14.5,18.5,,60.7,-327,-546,-30,1010.36,60.2,0
"2019-04-24 01:16:24+00",13.5,15.5,,60.8,-369,-495,-34,1010.5,60.2,0
"2019-04-24 01:21:24+00",12.5,16.5,,61.2,-367,-467,-40,1010.47,60.5,0
"2019-04-24 01:26:24+00",14.4,17.4,,62.2,-472,-548,-13,1010.5,61.2,0
"2019-04-24 01:31:24+00",13.8,15.8,,62.5,-428,-563,-14,1010.37,61.6,0
"2019-04-24 01:36:24+00",17.0,21.0,,62.6,-408,-687,-22,1010.13,61.9,0
"2019-04-24 01:41:24+00",19.1,22.1,,62.6,-435,-756,-45,1009.77,62,0
"2019-04-24 01:46:24+00",18.4,21.4,,62.6,-431,-753,-68,1009.59,62.1,0
"2019-04-24 01:51:24+00",19.2,23.2,,63,-519,-772,-38,1009.56,62.4,0
"2019-04-24 01:56:24+00",20.2,23.2,,63.3,-537,-811,-30,1009.5,62.6,0
"2019-04-24 02:01:24+00",22.9,25.9,,63.6,-668,-846,-30,1009.6,62.8,0
"2019-04-24 02:06:24+00",22.2,26.2,,63.6,-614,-852,-22,1009.55,62.9,0
"2019-04-24 02:11:24+00",20.6,23.6,,63.3,-588,-800,-27,1009.53,62.8,0
"2019-04-24 02:16:24+00",20.6,24.6,,63.2,-636,-682,-41,1009.83,62.6,0
"2019-04-24 02:21:24+00",18.2,21.2,,62.9,-574,-613,-32,1009.8,62.4,0
"2019-04-24 02:26:24+00",21.2,23.2,,62.8,-656,-729,-47,1009.67,62.3,0
"2019-04-24 02:31:24+00",17.9,20.9,,62.8,-530,-697,-43,1009.51,62.2,0
"2019-04-24 02:36:24+00",18.6,23.6,,62.7,-560,-702,-33,1009.56,62.1,0
"2019-04-24 02:41:24+00",18.7,21.7,,62.7,-572,-689,-36,1009.48,62.1,0
"2019-04-24 02:46:24+00",19.0,21.0,,62.8,-579,-704,-31,1009.47,62.2,0
"2019-04-24 02:51:24+00",23.2,27.2,,63.1,-693,-833,-22,1009.45,62.3,0
"2019-04-24 02:56:24+00",20.2,24.2,,63.2,-561,-780,-26,1009.39,62.5,0
"2019-04-24 03:01:24+00",22.0,25.0,,63.2,-587,-884,-30,1009.33,62.6,0
"2019-04-24 03:06:24+00",22.2,24.2,,63.2,-621,-853,-14,1009.25,62.6,0
"2019-04-24 03:11:24+00",22.0,25.0,,63.1,-589,-837,-20,1009.19,62.5,0
"2019-04-24 03:16:24+00",18.3,20.3,,62.7,-409,-753,-42,1009.1,62.3,0
"2019-04-24 03:21:24+00",14.8,16.8,,61.8,-291,-632,-26,1009.09,61.7,0
"2019-04-24 03:26:24+00",19.0,23.0,,61.2,-365,-798,-46,1008.96,61,0
"2019-04-24 03:31:24+00",18.8,21.8,,60.8,-332,-785,-46,1008.78,60.5,0
"2019-04-24 03:36:24+00",20.0,22.0,,60.6,-403,-794,-42,1008.69,60.4,0
"2019-04-24 03:41:24+00",20.2,23.2,,60.4,-409,-805,-24,1008.54,60.1,0
"2019-04-24 03:46:24+00",19.0,21.0,,60.2,-407,-748,-18,1008.48,59.9,0
"2019-04-24 03:51:24+00",20.2,23.2,,60,-480,-784,-17,1008.44,59.8,0
"2019-04-24 03:56:24+00",20.1,23.1,,59.9,-461,-778,-43,1008.38,59.6,0
"2019-04-24 04:01:24+00",21.1,24.1,,59.8,-473,-818,-53,1008.32,59.5,0
"2019-04-24 04:06:24+00",18.9,20.9,,59.8,-396,-734,-45,1008.28,59.4,0
"2019-04-24 04:11:24+00",18.1,21.1,,59.7,-408,-700,-53,1008.19,59.3,0
"2019-04-24 04:16:24+00",19.8,22.8,,59.7,-409,-777,-47,1008.06,59.3,0
"2019-04-24 04:21:24+00",21.1,24.1,,59.8,-464,-818,-57,1008.01,59.3,0
"2019-04-24 04:26:24+00",22.2,25.2,,59.9,-521,-853,-45,1007.99,59.4,0
"2019-04-24 04:31:24+00",19.1,22.1,,59.7,-444,-742,-38,1007.9,59.3,0
"2019-04-24 04:36:24+00",19.8,21.8,,59.6,-453,-760,-44,1007.84,59.2,0
"2019-04-24 04:41:24+00",18.6,21.6,,59.6,-408,-725,-43,1007.78,59.2,0
"2019-04-24 04:46:24+00",18.3,20.3,,59.7,-436,-717,-41,1007.83,59.2,0
"2019-04-24 04:51:24+00",16.3,18.3,,59.8,-446,-677,-33,1007.8,59.3,0
"2019-04-24 04:56:24+00",16.0,18.0,,59.8,-373,-670,-44,1007.73,59.3,0
"2019-04-24 05:01:24+00",17.1,21.1,,59.7,-405,-723,-44,1007.71,59.3,0
"2019-04-24 05:06:24+00",16.1,18.1,,59.8,-460,-700,-35,1007.57,59.4,0
"2019-04-24 05:11:24+00",21.3,24.3,,60,-444,-839,-60,1007.29,59.5,0
"2019-04-24 05:16:24+00",19.9,21.9,,59.7,-425,-794,-42,1007.38,59.4,0
"2019-04-24 05:21:24+00",20.7,23.7,,59.7,-465,-803,-42,1007.3,59.3,0
"2019-04-24 05:26:24+00",19.2,20.2,,59.6,-470,-740,-52,1007.25,59.3,0
"2019-04-24 05:31:24+00",20.3,22.3,,59.6,-434,-822,-66,1007,59.2,0
"2019-04-24 05:36:24+00",20.6,22.6,,59.5,-414,-838,-62,1006.91,59.1,0
"2019-04-24 05:41:24+00",19.6,22.6,,59.2,-408,-802,-54,1006.78,58.9,0
"2019-04-24 05:46:24+00",19.9,22.9,,59.2,-470,-806,-55,1006.82,58.8,0
"2019-04-24 05:51:24+00",19.3,24.3,,59.1,-440,-800,-55,1006.8,58.8,0
"2019-04-24 05:56:24+00",22.0,25.0,,59.2,-513,-870,-48,1006.75,58.7,0
"2019-04-24 06:01:24+00",19.0,21.0,,59,-502,-795,-43,1006.62,58.6,0
"2019-04-24 06:06:24+00",17.4,21.4,,59,-484,-727,-33,1006.58,58.6,0
"2019-04-24 06:11:24+00",16.5,21.5,,59,-479,-696,-35,1006.65,58.5,0
"2019-04-24 06:16:24+00",17.1,20.1,,59,-530,-662,-36,1006.63,58.6,0
"2019-04-24 06:21:24+00",17.1,21.1,,58.9,-528,-632,-24,1006.54,58.6,0
"2019-04-24 06:26:24+00",16.9,18.9,,58.8,-529,-678,-24,1006.45,58.5,0
"2019-04-24 06:31:24+00",17.7,20.7,,58.6,-602,-630,-43,1006.41,58.3,0
"2019-04-24 06:36:24+00",18.6,20.6,,58.5,-581,-742,-50,1006.28,58.2,0
"2019-04-24 06:41:24+00",18.1,21.1,,58.4,-544,-730,-31,1006.16,58.1,0
"2019-04-24 06:46:24+00",15.1,17.1,,58.3,-516,-450,-7,1006.27,58,0
"2019-04-24 06:51:24+00",17.0,20.0,,58.3,-589,-499,-41,1006.2,58.1,0
"2019-04-24 06:56:24+00",14.5,17.5,,58.3,-509,-441,-20,1006.16,58,0
"2019-04-24 07:01:24+00",16.8,21.8,,58.4,-596,-491,-33,1006.19,58.1,0
"2019-04-24 07:06:24+00",17.9,19.9,,58.4,-605,-513,-43,1006.18,58.1,0
"2019-04-24 07:11:24+00",17.0,20.0,,58.3,-584,-469,-42,1006.09,58,0
"2019-04-24 07:16:24+00",15.0,20.0,,58.2,-524,-417,-36,1005.97,57.9,0
"2019-04-24 07:21:24+00",13.6,16.6,,58.2,-441,-419,-43,1005.89,57.8,0
"2019-04-24 07:26:24+00",11.5,13.5,,58.1,-410,-398,-35,1005.97,57.8,0
"2019-04-24 07:31:24+00",12.4,14.4,,58.2,-429,-411,-24,1005.83,57.7,0
"2019-04-24 07:36:24+00",13.5,17.5,,58.2,-461,-406,-42,1005.86,57.8,0
"2019-04-24 07:41:24+00",13.2,15.2,,58.2,-463,-399,-41,1005.91,57.8,0
"2019-04-24 07:46:24+00",12.5,14.5,,58.2,-445,-387,-48,1005.84,57.8,0
"2019-04-24 07:51:24+00",13.3,17.3,,58.3,-467,-350,-38,1005.83,57.8,0
"2019-04-24 07:56:24+00",16.1,18.1,,58.3,-559,-398,-47,1005.86,57.8,0
"2019-04-24 08:01:24+00",14.5,16.5,,58.3,-537,-328,-33,1005.76,57.8,0
"2019-04-24 08:06:24+00",11.2,14.2,,58.1,-449,-240,5,1005.66,57.7,0
"2019-04-24 08:11:24+00",13.4,14.4,,58.6,-517,-291,-25,1005.73,57.9,0
"2019-04-24 08:16:24+00",13.7,14.7,,58.5,-495,-323,-29,1005.7,58,0
"2019-04-24 08:21:24+00",11.7,12.7,,58.3,-442,-253,-40,1005.65,57.9,0
"2019-04-24 08:26:24+00",10.8,12.8,,58.4,-396,-269,-49,1005.6,57.8,0
"2019-04-24 08:31:24+00",8.7,10.7,,58.4,-354,-169,-35,1005.6,57.8,0
"2019-04-24 08:36:24+00",10.1,11.1,,58.5,-396,-198,-61,1005.59,57.8,0
"2019-04-24 08:41:24+00",12.9,14.9,,58.9,-499,-263,-55,1005.48,58,0
"2019-04-24 08:46:24+00",10.4,12.4,,59.1,-437,-186,-50,1005.34,58.1,0
"2019-04-24 08:51:24+00",9.4,10.4,,59.1,-411,-174,-30,1005.31,58.2,0
"2019-04-24 08:56:24+00",8.9,9.9,,59.1,-387,-144,-58,1005.28,58.2,0
"2019-04-24 09:01:24+00",9.5,10.5,,59.1,-355,-186,-69,1005.27,58.2,0
"2019-04-24 09:06:24+00",8.2,9.2,,59.1,-355,-142,-33,1005.26,58.2,0
"2019-04-24 09:11:24+00",9.2,10.2,,59.1,-374,-94,-49,1005.31,58.2,0
"2019-04-24 09:16:24+00",9.3,10.3,,59.2,-405,-149,16,1005.36,58.1,0
"2019-04-24 09:21:24+00",11.3,13.3,,59.6,-496,-189,17,1005.38,58.2,0
"2019-04-24 09:26:24+00",10.6,11.6,,59.9,-471,-211,14,1005.36,58.4,0
"2019-04-24 09:31:24+00",10.6,11.6,,60,-463,-176,15,1005.46,58.5,0
"2019-04-24 09:36:24+00",10.9,11.9,,60.1,-477,-176,12,1005.52,58.6,0
"2019-04-24 09:41:24+00",10.8,11.8,,60.4,-451,-144,12,1005.49,58.7,0
"2019-04-24 09:46:24+00",9.0,10.0,,60.6,-417,-181,13,1005.52,58.7,0
"2019-04-24 09:51:24+00",9.6,10.6,,60.5,-380,-210,15,1005.42,58.7,0
"2019-04-24 09:56:24+00",9.4,9.4,,60.9,-372,-205,8,1005.54,58.7,0
"2019-04-24 10:01:24+00",10.2,11.2,,61.7,-387,-238,13,1005.54,58.8,0
"2019-04-24 10:06:24+00",10.4,11.4,,61.5,-350,-280,8,1005.63,59.1,0
"2019-04-24 10:11:24+00",9.2,10.2,,60.8,-270,-315,5,1005.81,59.2,0
"2019-04-24 10:16:24+00",11.1,12.1,,60.3,-367,-326,13,1005.87,59,0
"2019-04-24 10:21:24+00",10.6,11.6,,60.5,-399,-244,10,1005.9,59.1,0
"2019-04-24 10:26:24+00",9.4,10.4,,61,-412,-157,15,1005.98,59.2,0
"2019-04-24 10:31:24+00",9.5,10.5,,61.3,-407,-141,8,1006.09,59.4,0
"2019-04-24 10:36:24+00",9.5,10.5,,61.5,-382,-212,10,1006.11,59.6,1.8
"2019-04-24 10:41:24+00",9.0,10.0,,61.6,-353,-198,14,1006.21,60,9.7
"2019-04-24 10:46:24+00",9.3,10.3,,62,-387,-118,10,1006.23,60.4,8.4
"2019-04-24 10:51:24+00",10.7,12.7,,62.6,-439,-119,10,1006.33,60.8,3
"2019-04-24 10:56:24+00",11.8,12.8,,63,-513,-52,13,1006.45,61.2,12.7
"2019-04-24 11:01:24+00",12.4,14.4,,63.6,-541,-48,16,1006.54,61.7,21.9
"2019-04-24 11:06:24+00",12.1,14.1,,63.7,-528,-5,12,1006.62,62.3,40.1
"2019-04-24 11:11:24+00",12.6,13.6,,63.7,-557,47,15,1006.72,62.7,37.1
"2019-04-24 11:16:24+00",10.8,11.8,,63.6,-475,65,38,1006.64,62.9,35.9
"2019-04-24 11:21:24+00",11.5,12.5,,63.5,-513,86,24,1006.7,63,52.3
"2019-04-24 11:26:24+00",11.5,13.5,,63.4,-514,98,22,1006.71,63.1,71.7
"2019-04-24 11:31:24+00",11.6,13.6,,63.3,-503,131,29,1006.8,63.3,53.3
"2019-04-24 11:36:24+00",10.8,11.8,,63.4,-470,92,27,1006.86,63.5,128
"2019-04-24 11:41:24+00",9.9,10.9,,63.4,-424,132,32,1006.9,63.9,93.2
"2019-04-24 11:46:24+00",11.4,13.4,,63.2,-476,183,25,1006.93,63.8,80.9
"2019-04-24 11:51:24+00",13.2,14.2,,63.6,-540,235,45,1006.95,64,119.9
"2019-04-24 11:56:24+00",13.7,16.7,,64.1,-547,286,35,1006.87,64.2,169.4
"2019-04-24 12:01:24+00",14.0,16.0,,64.5,-508,374,26,1006.93,64.7,147.9
"2019-04-24 12:06:24+00",16.3,19.3,,65.2,-570,470,51,1006.94,65.2,179.7
"2019-04-24 12:11:24+00",21.3,23.3,,65.4,-695,653,63,1006.86,65.5,181.6
"2019-04-24 12:16:24+00",22.0,25.0,,65.4,-792,594,63,1006.84,65.7,202.5
"2019-04-24 12:21:24+00",20.0,23.0,,65.3,-697,562,55,1006.95,65.9,210.3
"2019-04-24 12:26:24+00",20.8,21.8,,65.5,-722,601,59,1006.89,66,217.7
"2019-04-24 12:31:24+00",17.5,20.5,,65.3,-614,504,60,1006.94,66.1,222.5
"2019-04-24 12:36:24+00",20.2,23.2,,65.4,-707,559,50,1007.1,66.2,235.6
"2019-04-24 12:41:24+00",20.7,23.7,,65.7,-784,507,54,1007.09,66.3,241.6
"2019-04-24 12:46:24+00",19.7,22.7,,65.8,-737,503,67,1007.03,66.5,248.6
"2019-04-24 12:51:24+00",21.2,23.2,,65.8,-821,472,37,1007.02,66.7,253.1
"2019-04-24 12:56:24+00",20.1,23.1,,65.8,-739,536,63,1007.18,66.7,265.3
"2019-04-24 13:01:24+00",21.4,23.4,,66,-782,557,33,1007.21,66.9,271.9
"2019-04-24 13:06:24+00",19.3,21.3,,66.3,-793,339,50,1007.21,67.2,271.9
"2019-04-24 13:11:24+00",16.9,18.9,,66.4,-662,380,41,1007.2,67.4,286.2
"2019-04-24 13:16:24+00",19.6,22.6,,66.6,-749,480,57,1007.26,67.6,296.3
"2019-04-24 13:21:24+00",19.3,21.3,,66.7,-778,411,53,1007.34,67.8,303
"2019-04-24 13:26:24+00",19.5,22.5,,66.7,-812,349,83,1007.32,67.9,314.5
"2019-04-24 13:31:24+00",23.3,28.3,,66.3,-904,533,77,1007.3,67.6,308.7
"2019-04-24 13:36:24+00",25.6,27.6,,66.3,-947,663,61,1007.36,67.3,333.3
"2019-04-24 13:41:24+00",22.6,26.6,,66.2,-817,606,67,1007.43,67.2,344.8
"2019-04-24 13:46:24+00",22.7,26.7,,66.2,-827,592,56,1007.42,67.2,352.3
"2019-04-24 13:51:24+00",20.4,24.4,,66.5,-822,430,70,1007.52,67.5,361.9
"2019-04-24 13:56:24+00",20.9,22.9,,66.5,-877,348,67,1007.55,67.6,373.1
"2019-04-24 14:01:24+00",17.8,21.8,,66.4,-634,527,63,1007.61,67.7,380.9
"2019-04-24 14:06:24+00",19.6,23.6,,66.4,-759,426,39,1007.64,67.8,395.2
"2019-04-24 14:11:24+00",18.0,20.0,,66.5,-703,405,67,1007.68,67.9,405.4
"2019-04-24 14:16:24+00",19.4,23.4,,66.2,-754,446,54,1007.68,67.8,419.2
"2019-04-24 14:21:24+00",21.2,24.2,,66,-801,511,68,1007.71,67.6,427.8
"2019-04-24 14:26:24+00",16.0,18.0,,66.1,-578,431,60,1007.79,67.7,435.4
"2019-04-24 14:31:24+00",19.9,21.9,,66,-719,542,49,1007.73,67.6,445.2
"2019-04-24 14:36:24+00",19.7,22.7,,66.2,-758,469,49,1007.66,67.6,451.9
"2019-04-24 14:41:24+00",19.7,21.7,,66.1,-755,453,55,1007.74,67.7,463.7
"2019-04-24 14:46:24+00",19.2,21.2,,66.3,-723,495,47,1007.83,67.9,472.6
"2019-04-24 14:51:24+00",18.7,21.7,,66.3,-721,458,55,1007.83,67.9,482.7
"2019-04-24 14:56:24+00",19.6,22.6,,66.4,-761,452,76,1007.92,68,490.3
"2019-04-24 15:01:24+00",18.7,20.7,,66.3,-676,503,59,1007.94,68.1,499.2
"2019-04-24 15:06:24+00",16.7,19.7,,66.3,-659,359,64,1007.95,68.1,506.8
"2019-04-24 15:11:24+00",19.9,21.9,,66.3,-728,502,53,1007.98,68.1,512.3
"2019-04-24 15:16:24+00",18.7,22.7,,66.2,-717,457,63,1008.01,68,522.7
"2019-04-24 15:21:24+00",19.7,22.7,,66,-744,479,56,1008.1,67.7,528.9
"2019-04-24 15:26:24+00",21.1,24.1,,65.8,-865,389,54,1008.13,67.5,532.6
"2019-04-24 15:31:24+00",19.0,22.0,,65.7,-802,297,56,1008.15,67.3,539.5
"2019-04-24 15:36:24+00",18.0,20.0,,65.9,-743,329,51,1008.12,67.4,544.2
"2019-04-24 15:41:24+00",20.9,22.9,,65.9,-888,338,51,1008.05,67.4,551.8
"2019-04-24 15:46:24+00",16.7,19.7,,66.1,-739,218,60,1008.04,67.5,552.6
"2019-04-24 15:51:24+00",18.3,21.3,,66.2,-773,294,65,1008.02,67.5,557.2
"2019-04-24 15:56:24+00",19.3,22.3,,66.3,-830,272,64,1008.1,67.6,560.3
"2019-04-24 16:01:24+00",16.4,18.4,,66.2,-704,230,61,1008.05,67.7,564.5
"2019-04-24 16:06:24+00",17.0,19.0,,66.4,-717,265,44,1008.1,67.9,566.7
"2019-04-24 16:11:24+00",14.1,16.1,,66.8,-549,340,42,1008.11,68.3,566.5
"2019-04-24 16:16:24+00",16.6,18.6,,66.5,-692,291,63,1008.1,68.2,570.4
"2019-04-24 16:21:24+00",17.3,19.3,,66.7,-712,336,60,1008.06,68.1,572.6
"2019-04-24 16:26:24+00",18.5,21.5,,66.5,-761,339,53,1008.14,68.1,574.2
"2019-04-24 16:31:24+00",15.8,18.8,,66.8,-681,204,48,1008.14,68.4,575.6
"2019-04-24 16:36:24+00",17.1,18.1,,66.6,-739,226,53,1008.07,68.2,505.1
"2019-04-24 16:41:24+00",20.0,22.0,,66.6,-841,292,67,1008.03,68,574.1
"2019-04-24 16:46:24+00",16.4,19.4,,66.6,-690,275,61,1008.11,67.9,552.9
"2019-04-24 16:51:24+00",17.0,19.0,,66.7,-740,227,58,1008.07,68,574.2
"2019-04-24 16:56:24+00",17.3,21.3,,67,-769,119,71,1008.08,68.1,573.2
"2019-04-24 17:01:24+00",19.6,21.6,,66.9,-840,274,47,1008.1,68.2,574.3
"2019-04-24 17:06:24+00",17.4,20.4,,67.2,-739,299,66,1008.07,68.3,570.5
"2019-04-24 17:11:24+00",16.0,19.0,,67.5,-673,279,50,1008.04,68.9,570.2
"2019-04-24 17:16:24+00",18.0,20.0,,67.3,-769,314,74,1007.94,68.7,565.8
"2019-04-24 17:21:24+00",19.3,22.3,,67.1,-840,240,64,1007.93,68.4,561.2
"2019-04-24 17:26:24+00",15.9,17.9,,67.3,-691,205,47,1007.91,68.3,557.3
"2019-04-24 17:31:24+00",16.1,18.1,,67.4,-691,230,59,1007.88,68.4,552.8
"2019-04-24 17:36:24+00",15.5,18.5,,67.6,-671,179,58,1007.83,68.6,548.6
"2019-04-24 17:41:24+00",14.3,16.3,,67.6,-560,324,44,1007.81,68.8,544.4
"2019-04-24 17:46:24+00",19.2,22.2,,67.9,-821,309,64,1007.84,69.2,537.4
"2019-04-24 17:51:24+00",16.8,18.8,,67.8,-738,163,34,1007.89,69.1,531.5
"2019-04-24 17:56:24+00",13.4,14.4,,67.9,-577,177,29,1007.87,69.3,525.3
"2019-04-24 18:01:24+00",13.5,15.5,,68.4,-502,359,31,1007.76,69.7,524.2
"2019-04-24 18:06:24+00",14.1,17.1,,68.7,-527,351,43,1007.79,70.2,520.5
"2019-04-24 18:11:24+00",17.4,19.4,,68.7,-766,171,49,1007.79,70.2,512.2
"2019-04-24 18:16:24+00",13.2,15.2,,68.7,-566,211,65,1007.75,70.2,504.9
"2019-04-24 18:21:24+00",12.2,14.2,,68.8,-534,125,43,1007.78,70.2,495.3
"2019-04-24 18:26:24+00",13.0,14.0,,68.8,-537,237,41,1007.88,70.5,487.8
"2019-04-24 18:31:24+00",13.4,15.4,,69.1,-593,93,45,1007.83,70.7,480.6
"2019-04-24 18:36:24+00",14.7,16.7,,69.3,-600,273,27,1007.77,70.7,473.7
"2019-04-24 18:41:24+00",14.6,17.6,,69.2,-619,250,51,1007.77,71,469.8
"2019-04-24 18:46:24+00",14.4,15.4,,69.3,-601,237,41,1007.72,71,461.2
"2019-04-24 18:51:24+00",17.6,18.6,,69.1,-763,226,53,1007.75,70.6,450.7
"2019-04-24 18:56:24+00",15.7,16.7,,69.3,-667,240,36,1007.71,70.6,443.8
"2019-04-24 19:01:24+00",14.0,15.0,,69.4,-609,179,36,1007.69,70.7,436.8
"2019-04-24 19:06:24+00",17.6,18.6,,69.3,-768,225,50,1007.59,70.6,430.2
"2019-04-24 19:11:24+00",16.2,18.2,,69.4,-711,189,43,1007.57,70.7,421.8
"2019-04-24 19:16:24+00",15.2,17.2,,69.7,-685,94,62,1007.53,70.9,414
"2019-04-24 19:21:24+00",17.6,18.6,,69.5,-751,250,45,1007.48,70.8,405.3
"2019-04-24 19:26:24+00",15.2,17.2,,69.6,-658,217,51,1007.55,70.9,397.9
"2019-04-24 19:31:24+00",17.9,20.9,,69.3,-773,262,51,1007.59,70.9,389.7
"2019-04-24 19:36:24+00",18.2,21.2,,69.5,-791,261,40,1007.53,70.8,383
"2019-04-24 19:41:24+00",16.3,18.3,,69.9,-693,285,78,1007.51,71,375.7
"2019-04-24 19:46:24+00",14.3,16.3,,70.4,-615,217,57,1007.43,71.7,371.7
"2019-04-24 19:51:24+00",17.6,19.6,,69.9,-752,281,69,1007.35,71.5,357
"2019-04-24 19:56:24+00",17.3,18.3,,69.8,-750,222,52,1007.46,71.4,349.7
"2019-04-24 20:01:24+00",15.3,16.3,,69.9,-652,222,32,1007.46,71.4,340.4
"2019-04-24 20:06:24+00",17.4,20.4,,70.1,-758,210,48,1007.43,71.7,332.6
"2019-04-24 20:11:24+00",18.1,20.1,,69.9,-773,244,52,1007.37,71.6,323.5
"2019-04-24 20:16:24+00",16.2,18.2,,70.1,-708,142,34,1007.42,71.6,313.7
"2019-04-24 20:21:24+00",16.7,17.7,,70.2,-735,201,47,1007.44,71.9,307.9
"2019-04-24 20:26:24+00",14.5,16.5,,70.4,-635,169,49,1007.51,72,296.8
"2019-04-24 20:31:24+00",19.6,21.6,,70.1,-851,252,59,1007.51,72,288.9
"2019-04-24 20:36:24+00",18.2,19.2,,70.3,-791,220,65,1007.59,71.8,281.8
"2019-04-24 20:41:24+00",16.1,17.1,,70.4,-702,180,40,1007.57,72,276
"2019-04-24 20:46:24+00",19.4,20.4,,70.3,-833,286,61,1007.53,71.9,265.1
"2019-04-24 20:51:24+00",15.0,17.0,,70.4,-634,244,42,1007.68,72.1,258.7
"2019-04-24 20:56:24+00",16.0,18.0,,70.2,-678,244,48,1007.67,72.1,249.5
"2019-04-24 21:01:24+00",18.8,21.8,,70.1,-783,307,55,1007.69,71.9,241.4
"2019-04-24 21:06:24+00",15.7,16.7,,70.3,-664,262,42,1007.79,71.9,236.3
"2019-04-24 21:11:24+00",16.0,19.0,,70.2,-673,267,54,1007.81,72,226.6
"2019-04-24 21:16:24+00",14.7,16.7,,70.4,-640,189,44,1007.8,72.1,220.9
"2019-04-24 21:21:24+00",13.8,15.8,,70.4,-608,184,66,1007.83,72.2,213.8
"2019-04-24 21:26:24+00",19.0,21.0,,70.5,-763,390,42,1007.93,72.1,207.1
"2019-04-24 21:31:24+00",15.7,16.7,,70.7,-667,265,45,1008.02,72.2,197.1
"2019-04-24 21:36:24+00",17.6,20.6,,70.2,-743,316,54,1008.02,71.8,186.7
"2019-04-24 21:41:24+00",14.7,17.7,,70.3,-592,301,44,1008.17,71.7,164
"2019-04-24 21:46:24+00",15.9,19.9,,70.3,-678,241,46,1008.23,71.8,171.9
"2019-04-24 21:51:24+00",14.6,15.6,,70,-622,217,42,1008.26,71.6,157.8
"2019-04-24 21:56:24+00",16.7,17.7,,69.8,-714,243,36,1008.35,71.3,155.2
"2019-04-24 22:01:24+00",15.4,17.4,,69.5,-649,249,44,1008.42,71.1,135.6
"2019-04-24 22:06:24+00",18.8,20.8,,69.6,-778,334,50,1008.43,70.6,106.2
"2019-04-24 22:11:24+00",14.7,16.7,,69.4,-618,241,45,1008.54,70.3,93.4
"2019-04-24 22:16:24+00",16.9,20.9,,69.6,-706,276,58,1008.55,70.3,94.2
"2019-04-24 22:21:24+00",16.4,18.4,,69.7,-706,241,50,1008.56,70.2,100.8
"2019-04-24 22:26:24+00",15.3,17.3,,69.5,-652,222,37,1008.6,70.2,95.3
"2019-04-24 22:31:24+00",16.7,18.7,,69.4,-687,322,34,1008.53,70.1,53.9
"2019-04-24 22:36:24+00",14.6,16.6,,69.2,-608,255,41,1008.65,69.9,57.1
"2019-04-24 22:41:24+00",16.1,18.1,,69.1,-672,284,44,1008.84,69.6,47.4
"2019-04-24 22:46:24+00",14.0,15.0,,69.2,-589,231,46,1008.86,69.4,32.7
"2019-04-24 22:51:24+00",16.6,18.6,,68.9,-712,230,59,1008.87,68.9,15.1
"2019-04-24 22:56:24+00",13.5,15.5,,68.7,-583,198,41,1008.94,68.6,0
"2019-04-24 23:01:24+00",14.2,16.2,,68.2,-619,161,41,1009.07,67.8,0
"2019-04-24 23:06:24+00",12.5,13.5,,67.9,-544,153,34,1009.14,67.2,0
"2019-04-24 23:11:24+00",12.8,14.8,,67.7,-543,183,27,1009.2,66.8,0
"2019-04-24 23:16:24+00",11.8,12.8,,67.2,-499,170,39,1009.19,66.6,0
"2019-04-24 23:21:24+00",12.7,13.7,,67.2,-551,166,42,1009.21,66.3,0
"2019-04-24 23:26:24+00",13.1,15.1,,67,-578,149,38,1009.34,65.9,0
"2019-04-24 23:31:24+00",12.6,13.6,,66.8,-547,161,34,1009.35,65.6,0
"2019-04-24 23:36:24+00",13.2,15.2,,66.8,-576,153,40,1009.39,65.4,0
"2019-04-24 23:41:24+00",11.0,12.0,,66.7,-486,83,25,1009.37,65.2,0
"2019-04-24 23:46:24+00",10.1,12.1,,66.5,-438,97,32,1009.43,65,0
"2019-04-24 23:51:24+00",10.2,11.2,,66.6,-442,82,25,1009.46,64.8,0
"2019-04-24 23:56:24+00",10.9,11.9,,66.3,-479,90,24,1009.54,64.5,0
